Weather History for Midland Airpark, TX

Change the Weather History Date:

Sunday, March 31, 2013

  Actual Average (KMAF) Record (KMAF)
Temperature  
Mean Temperature 72 °F 60 °F  
Max Temperature 81 °F 75 °F 97 °F (1946)
Min Temperature 61 °F 45 °F 16 °F (1931)
Degree Days  
Heating Degree Days 0 7  
Month to date heating degree days 308  
Since 1 July heating degree days 2544  
Cooling Degree Days 6 1  
Month to date cooling degree days 16  
Year to date cooling degree days 18  
Growing Degree Days 22 (Base 50)    
Moisture  
Dew Point 38 °F    
Average Humidity 31    
Maximum Humidity 58    
Minimum Humidity 11    
Precipitation  
Precipitation 0.00 in 0.02 in 0.74 in (1945)
Month to date precipitation 0.60  
Year to date precipitation 1.87  
Snow  
Snow 0.00 in - - ()
Month to date snowfall  
Since 1 July snowfall  
Snow Depth -    
Sea Level Pressure  
Sea Level Pressure 30.00 in    
Wind  
Wind Speed 10 mph (NE)    
Max Wind Speed 24 mph    
Max Gust Speed 40 mph    
Visibility 10 miles    
Events      
T = Trace of Precipitation, MM = Missing Value Source: NWS Daily Summary

Daily Weather History Graph

Daily Weather History Graph

Search for Another Location

Airport:

Trip Planner

Search our weather history database for the weather conditions in past years. The results will help you decide how hot, cold, wet, or windy it might be!

Date:

Astronomy

Mar. 31, 2013 Rise Set
Actual Time 7:37 AM CDT 8:07 PM CDT
Civil Twilight 7:13 AM CDT 8:32 PM CDT
Nautical Twilight 6:44 AM CDT 9:01 PM CDT
Astronomical Twilight 6:14 AM CDT 9:30 PM CDT
Moon 12:01 AM CDT (3/31) 10:42 AM CDT (3/31)
Length of Visible Light 13h 19m
Length of Day
12h 30m
Waning Gibbous, 77% of the Moon is Illuminated
Mar 31
Waning Gibbous
Apr 2
Last Quarter
Apr 10
New
Apr 18
First Quarter
Apr 25
Full

Hourly Weather History & Observations

Time (CDT) Temp. Dew Point Humidity Pressure Visibility Wind Dir Wind Speed Gust Speed Precip Events Conditions
12:15 AM 82.0 °F 22.8 °F 11% 29.94 in 10.0 mi SSW 8.1 mph 40.3 mph N/A   Clear
12:35 AM 79.9 °F 23.7 °F 13% 29.95 in 10.0 mi WSW 10.4 mph 19.6 mph N/A   Clear
12:55 AM 80.8 °F 23.5 °F 12% 29.95 in 10.0 mi West 12.7 mph 18.4 mph N/A   Clear
1:15 AM 79.7 °F 23.9 °F 13% 29.95 in 10.0 mi SW 6.9 mph - N/A   Clear
1:35 AM 80.6 °F 25.3 °F 13% 29.96 in 10.0 mi WNW 18.4 mph 33.4 mph N/A   Clear
1:55 AM 79.9 °F 25.7 °F 14% 29.96 in 10.0 mi West 8.1 mph - N/A   Clear
2:15 AM 80.1 °F 25.5 °F 13% 29.96 in 10.0 mi West 11.5 mph - N/A   Clear
2:35 AM 78.6 °F 25.3 °F 14% 29.96 in 10.0 mi West 6.9 mph - N/A   Scattered Clouds
2:55 AM 77.0 °F 25.7 °F 15% 29.96 in 10.0 mi SSW 6.9 mph - N/A   Clear
3:15 AM 75.7 °F 25.3 °F 15% 29.95 in 10.0 mi WSW 8.1 mph - N/A   Clear
3:35 AM 75.2 °F 26.6 °F 17% 29.94 in 10.0 mi Calm Calm - N/A   Clear
3:55 AM 75.4 °F 25.9 °F 16% 29.94 in 10.0 mi WSW 3.5 mph - N/A   Scattered Clouds
4:15 AM 74.5 °F 27.0 °F 17% 29.93 in 10.0 mi SW 4.6 mph - N/A   Scattered Clouds
4:35 AM 73.6 °F 32.0 °F 22% 29.93 in 10.0 mi SW 3.5 mph - N/A   Clear
4:55 AM 72.3 °F 32.0 °F 23% 29.92 in 10.0 mi Calm Calm - N/A   Clear
5:15 AM 72.0 °F 32.0 °F 23% 29.92 in 10.0 mi Calm Calm - N/A   Clear
5:35 AM 69.3 °F 33.6 °F 27% 29.93 in 10.0 mi Calm Calm - N/A   Clear
5:55 AM 68.5 °F 35.1 °F 29% 29.93 in 10.0 mi South 5.8 mph - N/A   Scattered Clouds
6:15 AM 68.0 °F 37.2 °F 32% 29.93 in 10.0 mi Calm Calm - N/A   Scattered Clouds
6:35 AM 67.3 °F 37.4 °F 33% 29.93 in 10.0 mi Calm Calm - N/A   Scattered Clouds
6:55 AM 67.8 °F 37.0 °F 32% 29.94 in 10.0 mi West 4.6 mph - N/A   Clear
7:15 AM 64.9 °F 35.4 °F 33% 29.95 in 10.0 mi West 3.5 mph - N/A   Clear
7:35 AM 65.7 °F 32.4 °F 29% 29.96 in 10.0 mi WNW 6.9 mph - N/A   Clear
7:55 AM 66.9 °F 30.9 °F 26% 29.97 in 10.0 mi NW 6.9 mph - N/A   Scattered Clouds
8:15 AM 67.1 °F 28.9 °F 24% 29.98 in 10.0 mi NW 9.2 mph - N/A   Scattered Clouds
8:35 AM 68.9 °F 26.4 °F 20% 30.00 in 10.0 mi NNW 13.8 mph 19.6 mph N/A   Clear
8:55 AM 65.5 °F 32.9 °F 30% 30.03 in 5.0 mi NE 20.7 mph 26.5 mph N/A   Haze
9:15 AM 61.2 °F 45.7 °F 57% 30.04 in 7.0 mi ENE 24.2 mph 29.9 mph N/A   Scattered Clouds
9:35 AM 61.0 °F 46.0 °F 58% 30.06 in 10.0 mi NE 23.0 mph 31.1 mph N/A   Clear
9:55 AM 61.7 °F 46.2 °F 57% 30.07 in 10.0 mi NE 21.9 mph 26.5 mph N/A   Clear
10:15 AM 62.6 °F 45.9 °F 54% 30.07 in 10.0 mi NE 21.9 mph 29.9 mph N/A   Clear
10:35 AM 63.5 °F 45.5 °F 52% 30.07 in 10.0 mi NE 21.9 mph 29.9 mph N/A   Clear
10:55 AM 64.0 °F 45.9 °F 52% 30.07 in 10.0 mi NE 21.9 mph 27.6 mph N/A   Clear
11:15 AM 65.3 °F 46.2 °F 50% 30.07 in 10.0 mi NE 23.0 mph 31.1 mph N/A   Clear
11:35 AM 66.4 °F 46.4 °F 49% 30.07 in 10.0 mi NE 21.9 mph 27.6 mph N/A   Clear
11:55 AM 67.3 °F 46.2 °F 47% 30.07 in 10.0 mi ENE 18.4 mph 29.9 mph N/A   Clear
12:15 PM 68.9 °F 46.2 °F 44% 30.07 in 10.0 mi ENE 19.6 mph 26.5 mph N/A   Clear
12:35 PM 70.2 °F 46.0 °F 42% 30.07 in 10.0 mi ENE 19.6 mph 27.6 mph N/A   Clear
12:55 PM 71.2 °F 45.5 °F 40% 30.07 in 10.0 mi East 20.7 mph 25.3 mph N/A   Clear
1:15 PM 72.3 °F 45.1 °F 38% 30.06 in 10.0 mi NE 19.6 mph 26.5 mph N/A   Clear
1:35 PM 72.5 °F 44.2 °F 36% 30.06 in 10.0 mi ENE 17.3 mph 26.5 mph N/A   Clear
1:55 PM 73.6 °F 43.7 °F 34% 30.05 in 10.0 mi NE 17.3 mph 21.9 mph N/A   Clear
2:15 PM 74.3 °F 43.9 °F 34% 30.05 in 10.0 mi ENE 13.8 mph 21.9 mph N/A   Clear
2:35 PM 74.5 °F 43.2 °F 33% 30.04 in 10.0 mi ENE 16.1 mph 20.7 mph N/A   Clear
2:55 PM 75.6 °F 43.3 °F 32% 30.03 in 10.0 mi East 12.7 mph 21.9 mph N/A   Clear
3:15 PM 75.7 °F 43.0 °F 31% 30.03 in 10.0 mi East 11.5 mph 16.1 mph N/A   Clear
3:35 PM 76.1 °F 41.9 °F 29% 30.02 in 10.0 mi North 6.9 mph - N/A   Clear
3:55 PM 76.5 °F 42.3 °F 29% 30.01 in 10.0 mi ENE 6.9 mph - N/A   Clear
4:15 PM 77.5 °F 41.9 °F 28% 30.00 in 10.0 mi ENE 6.9 mph - N/A   Clear
4:35 PM 77.7 °F 41.2 °F 27% 30.00 in 10.0 mi NNE 6.9 mph - N/A   Clear
4:55 PM 77.7 °F 41.2 °F 27% 29.99 in 10.0 mi ENE 8.1 mph - N/A   Clear
5:15 PM 77.7 °F 41.5 °F 27% 29.99 in 10.0 mi NNE 5.8 mph - N/A   Clear
5:35 PM 77.9 °F 41.2 °F 27% 29.98 in 10.0 mi ENE 8.1 mph - N/A   Clear
5:55 PM 77.7 °F 40.6 °F 26% 29.97 in 10.0 mi Calm Calm - N/A   Clear
6:15 PM 77.2 °F 40.3 °F 27% 29.97 in 10.0 mi NNW 3.5 mph - N/A   Clear
6:35 PM 77.5 °F 40.3 °F 26% 29.97 in 10.0 mi NE 6.9 mph - N/A   Clear
7:15 PM 76.5 °F 39.4 °F 26% 29.98 in 10.0 mi North 3.5 mph - N/A   Clear
7:35 PM 75.7 °F 39.7 °F 27% 29.99 in 10.0 mi NE 8.1 mph - N/A   Clear
7:55 PM 74.3 °F 40.6 °F 30% 29.99 in 10.0 mi NE 8.1 mph - N/A   Clear
8:15 PM 73.0 °F 40.3 °F 31% 29.99 in 10.0 mi NE 5.8 mph - N/A   Clear
8:35 PM 70.9 °F 40.3 °F 33% 30.00 in 10.0 mi ENE 5.8 mph - N/A   Clear
9:15 PM 69.6 °F 41.9 °F 37% 30.01 in 10.0 mi East 6.9 mph - N/A   Clear
9:35 PM 68.7 °F 42.3 °F 38% 30.03 in 10.0 mi ENE 6.9 mph - N/A   Clear
9:55 PM 68.0 °F 42.4 °F 39% 30.03 in 10.0 mi East 8.1 mph - N/A   Clear
10:15 PM 67.5 °F 42.4 °F 40% 30.03 in 10.0 mi East 6.9 mph - N/A   Clear
10:35 PM 66.7 °F 42.8 °F 42% 30.04 in 10.0 mi East 5.8 mph - N/A   Clear
10:55 PM 66.4 °F 42.8 °F 42% 30.04 in 10.0 mi East 6.9 mph - N/A   Clear
11:15 PM 65.7 °F 42.8 °F 43% 30.04 in 10.0 mi East 5.8 mph - N/A   Clear
11:55 PM 64.8 °F 42.8 °F 45% 30.04 in 10.0 mi ESE 8.1 mph - N/A   Clear